#
# The Tor Project
#
# URL: https://metrics.torproject.org/networksize.csv?start=2015-01-01&end=2015-05-03
#
date,relays,bridges
2015-01-01,6832,4159
2015-01-02,6919,4191
2015-01-03,6968,4179
2015-01-04,7053,4227
2015-01-05,7078,4175
2015-01-06,7092,4161
2015-01-07,7121,4152
2015-01-08,7153,4164
2015-01-09,7104,4171
2015-01-10,7063,4193
2015-01-11,7083,4189
2015-01-12,7019,4111
2015-01-13,6973,4099
2015-01-14,6966,4097
2015-01-15,6967,4091
2015-01-16,6981,3864
2015-01-17,7004,4209
2015-01-18,7022,4215
2015-01-19,7006,4176
2015-01-20,7026,4169
2015-01-21,6993,4160
2015-01-22,6964,4110
2015-01-23,6944,4119
2015-01-24,6941,4201
2015-01-25,6947,4215
2015-01-26,6895,4179
2015-01-27,6888,4205
2015-01-28,6880,4176
2015-01-29,6907,4168
2015-01-30,6925,4162
2015-01-31,6949,4215
2015-02-01,7022,4205
2015-02-02,6989,4180
2015-02-03,6961,4168
2015-02-04,7018,4209
2015-02-05,7023,4175
2015-02-06,7027,4179
2015-02-07,7050,4180
2015-02-08,7073,4197
2015-02-09,7025,4145
2015-02-10,7009,4141
2015-02-11,6990,4144
2015-02-12,6997,4132
2015-02-13,6996,4103
2015-02-14,7014,4131
2015-02-15,7013,4086
2015-02-16,6980,4092
2015-02-17,6969,4059
2015-02-18,6960,4086
2015-02-19,6927,4069
2015-02-20,6929,4068
2015-02-21,6945,4126
2015-02-22,6937,4133
2015-02-23,6901,4100
2015-02-24,6874,3984
2015-02-25,6863,3966
2015-02-26,6807,3950
2015-02-27,6794,3982
2015-02-28,6800,3985
2015-03-01,6919,3974
2015-03-02,6888,3944
2015-03-03,6893,3926
2015-03-04,6906,3931
2015-03-05,6905,3787
2015-03-06,6920,3674
2015-03-07,6907,3681
2015-03-08,6917,3684
2015-03-09,6914,3652
2015-03-10,6901,3663
2015-03-11,6875,3651
2015-03-12,6827,3508
2015-03-13,6824,3427
2015-03-14,6856,3525
2015-03-15,6836,3656
2015-03-16,6784,3644
2015-03-17,6736,3649
2015-03-18,6733,3644
2015-03-19,6730,3648
2015-03-20,6747,3620
2015-03-21,6763,3680
2015-03-22,6756,3686
2015-03-23,6724,3657
2015-03-24,6731,3651
2015-03-25,6705,3644
2015-03-26,6685,3661
2015-03-27,6643,3673
2015-03-28,6571,3691
2015-03-29,6562,3698
2015-03-30,6548,3687
2015-03-31,6531,3705
2015-04-01,6677,3896
2015-04-02,6679,3899
2015-04-03,6670,3897
2015-04-04,6722,3897
2015-04-05,6731,3901
2015-04-06,6750,3961
2015-04-07,6749,3998
2015-04-08,6715,3991
2015-04-09,6702,3985
2015-04-10,6684,3951
2015-04-11,6688,3964
2015-04-12,6671,3962
2015-04-13,6666,3950
2015-04-14,6674,3967
2015-04-15,6682,3945
2015-04-16,6690,3942
2015-04-17,6715,3951
2015-04-18,6711,3963
2015-04-19,6713,3975
2015-04-20,6702,3943
2015-04-21,6718,3945
2015-04-22,6681,3949
2015-04-23,6669,3915
2015-04-24,6605,3265
2015-04-25,6592,3755
2015-04-26,6587,3839
2015-04-27,6565,3751
2015-04-28,6535,3686
2015-04-29,6500,3717
2015-04-30,6478,3511
2015-05-01,6558,3538
2015-05-02,6613,3540
2015-05-03,6623,3545
